[[{"header":{"parameterUnit":"m.s-1","parameterCategory":1,"la1":30.2991,"la2":30.254,"lo1":-89.0895,"lo2":-89.0444,"dx":0.0017,"dy":0.0017,"nx":28,"ny":28,"refTime":"2023-01-09T03:00:00:Z","depth":0,"parameterNumber":2,"parameterNumberName":"U-component_of_WINDS"},"data":[0,0,0,0,0,0,0,0,0,0,0,0,0,0,0,0,0,0,0,0,0,0,0,0,0,0,0,0,0,0,0,0,0,0,0,0,0,0,0,0,0,0,0,0,0,0,0,0,0,0,0,0,0,0,0,0,0,0,-0.3245,-0.3246,0,-0.3363,-0.3365,-0.3366,-0.336,-0.3358,-0.3356,-0.3355,-0.348,-0.3485,-0.349,0,0,0,0,0,0,0,0,0,0,0,0,0,-0.3018,-0.3022,-0.3245,-0.3246,-0.3248,-0.3363,-0.3365,-0.3366,-0.336,-0.3358,-0.3356,-0.3354,-0.3479,-0.3485,-0.349,0,0,0,0,0,0,0,0,0,0,0,0,0,-0.3125,-0.3024,-0.3245,-0.3259,-0.3261,-0.3363,-0.3365,-0.3367,-0.3361,-0.3358,-0.3355,-0.3353,-0.3477,-0.3484,-0.3491,-0.3588,0,0,-0.3514,-0.3517,0,0,0,0,0,0,0,0,-0.3119,-0.3133,-0.3255,-0.3258,-0.3261,-0.3344,-0.3331,-0.3441,-0.3361,-0.3323,-0.3355,-0.3352,-0.3437,-0.3448,-0.3476,-0.3594,-0.3599,-0.3515,-0.3519,-0.3522,-0.3524,0,0,0,0,0,0,0,-0.3111,-0.3128,-0.3292,-0.3257,-0.326,-0.326,-0.3273,-0.3352,-0.3393,-0.3326,-0.3326,-0.334,-0.3438,-0.3469,-0.3479,-0.3601,-0.3514,-0.3521,-0.3525,-0.3528,-0.3806,-0.3808,0,0,0,0,0,0,-0.31,-0.3122,-0.3288,-0.3295,-0.3182,-0.3266,-0.328,-0.332,-0.3392,-0.3401,-0.3342,-0.3339,-0.3457,-0.347,-0.3483,-0.3602,-0.3522,-0.3529,-0.3533,-0.3803,-0.3806,-0.3809,0,0,0,0,0,0,-0.3095,-0.3115,-0.3283,-0.3209,-0.323,-0.3273,-0.3318,-0.3324,-0.3354,-0.3404,-0.3412,-0.3365,-0.3456,-0.3473,-0.3562,-0.3606,-0.3532,-0.3539,-0.3799,-0.3804,-0.3808,-0.384,0,0,0,0,0,0,-0.3089,-0.3113,-0.315,-0.3209,-0.3234,-0.3359,-0.332,-0.3328,-0.3366,-0.3364,-0.3428,-0.3436,-0.3455,-0.3551,-0.3569,-0.3615,-0.3545,-0.3796,-0.3801,-0.3806,-0.3835,-0.3845,-0.3853,0,0,0,0,0,-0.3081,-0.3155,-0.3152,-0.3172,-0.328,-0.3362,-0.3376,-0.3395,-0.337,-0.3407,-0.3439,-0.3434,-0.3598,-0.356,-0.3581,-0.3629,-0.3793,-0.38,-0.3806,-0.3831,-0.3843,-0.3853,0,0,0,0,0,0,-0.3101,-0.3163,-0.316,-0.3256,-0.3303,-0.336,-0.3409,-0.3407,-0.3464,-0.346,-0.3482,-0.3497,-0.3586,-0.3617,-0.3573,-0.3727,-0.3692,-0.3703,-0.3704,-0.3716,-0.3725,-0.3717,-0.3551,0,0,0,0,0,-0.3117,-0.3176,-0.3228,-0.3307,-0.3331,-0.3365,-0.3402,-0.3412,-0.3463,-0.3484,-0.3523,-0.3573,-0.3636,-0.3678,-0.3738,-0.3839,-0.3854,-0.3883,-0.3892,-0.3899,-0.3909,-0.3965,-0.3979,-0.3831,-0.3831,-0.3831,0,0,-0.315,-0.3191,-0.3227,-0.3312,-0.335,-0.3413,-0.3383,-0.345,-0.3498,-0.3495,-0.3581,-0.3611,-0.367,-0.3765,-0.3809,-0.3793,-0.3952,-0.3907,-0.3913,-0.3919,-0.3973,-0.3987,-0.4,-0.3835,-0.3835,-0.3834,0,0,-0.3242,-0.3278,-0.3349,-0.3387,-0.3445,-0.3467,-0.3484,-0.3541,-0.3561,-0.3648,-0.3647,-0.3704,-0.3811,-0.3853,-0.3889,-0.3996,-0.3993,-0.4015,-0.4063,-0.4117,-0.4129,-0.4139,-0.4179,-0.4193,-0.4024,-0.4024,-0.4024,0,-0.3276,-0.3369,-0.3386,-0.3454,-0.3491,-0.3489,-0.3562,-0.3599,-0.3674,-0.3701,-0.3681,-0.3816,-0.3855,-0.3961,-0.3987,-0.4015,-0.4036,-0.4009,-0.4126,-0.4136,-0.4146,-0.4184,-0.4199,-0.4026,-0.4026,-0.4026,-0.4026,0,-0.3409,-0.3474,-0.3524,-0.3595,-0.3638,-0.3708,-0.3736,-0.3778,-0.3784,-0.3809,-0.3898,-0.3944,-0.4015,-0.404,-0.4048,-0.4147,-0.4135,-0.412,-0.4086,-0.4163,-0.4199,-0.4213,-0.403,-0.4029,-0.4028,-0.4028,0,0,-0.352,-0.3597,-0.3616,-0.3648,-0.3711,-0.3762,-0.3832,-0.3899,-0.3935,-0.3987,-0.4047,-0.4138,-0.4124,-0.4164,-0.4176,-0.4224,-0.4307,-0.4203,-0.4205,-0.4222,-0.4421,-0.4432,-0.4449,-0.4305,-0.4307,-0.431,-0.4416,0,-0.3619,-0.3742,-0.3758,-0.3868,-0.3928,-0.3927,-0.3988,-0.4034,-0.4059,-0.4115,-0.4142,-0.4207,-0.4183,-0.4208,-0.4254,-0.4287,-0.4347,-0.4279,-0.4363,-0.4366,-0.435,-0.4468,-0.4481,-0.4579,-0.443,-0.4433,-0.4434,0,-0.3753,-0.3806,-0.3921,-0.3976,-0.4002,-0.4056,-0.4119,-0.4172,-0.4224,-0.4239,-0.4283,-0.4289,-0.4363,-0.4324,-0.4426,-0.438,-0.4415,-0.4435,-0.444,-0.445,-0.4406,-0.4482,-0.4611,-0.4626,-0.4456,-0.4455,-0.4453,0,-0.3823,-0.3924,-0.4006,-0.4034,-0.4099,-0.4137,-0.4167,-0.4216,-0.4255,-0.4311,-0.4337,-0.44,-0.4436,-0.4485,-0.4508,-0.4478,-0.461,-0.4573,-0.4626,-0.4625,-0.4655,-0.4653,-0.4793,-0.4675,-0.4675,-0.4675,-0.4674,0,-0.3934,-0.4005,-0.4039,-0.4089,-0.4169,-0.4187,-0.4266,-0.4294,-0.4338,-0.4395,-0.4397,-0.4451,-0.4478,-0.4536,-0.4554,-0.4637,-0.4653,-0.4668,-0.4672,-0.4669,-0.4667,-0.4693,-0.4688,-0.4679,-0.4678,-0.4677,-0.4676,0,-0.4027,-0.4052,-0.4142,-0.4196,-0.4211,-0.4267,-0.4314,-0.4364,-0.4387,-0.4459,-0.4477,-0.4515,-0.4584,-0.4611,-0.4695,-0.4708,-0.4803,-0.4802,-0.4786,-0.4787,-0.4839,-0.4834,-0.5001,-0.5025,-0.489,-0.4892,-0.4893,0,-0.4097,-0.4151,-0.421,-0.4248,-0.4278,-0.4339,-0.4378,-0.4398,-0.444,-0.4503,-0.4545,-0.4613,-0.4669,-0.4778,-0.4814,-0.4879,-0.488,-0.4933,-0.489,-0.4884,-0.4882,-0.4879,-0.4885,-0.4942,-0.4944,-0.4945,-0.4946,0,-0.4219,-0.4228,-0.4284,-0.4345,-0.4392,-0.4442,-0.449,-0.4521,-0.4548,-0.4595,-0.4664,-0.4707,-0.4792,-0.486,-0.4926,-0.4958,-0.4957,-0.4959,-0.4975,-0.4972,-0.4961,-0.4969,-0.4809,-0.4955,-0.4954,-0.4954,-0.4953,-0.4953,-0.4303,-0.4351,-0.44,-0.4463,-0.4501,-0.4546,-0.4595,-0.4624,-0.4682,-0.4752,-0.476,-0.4835,-0.4886,-0.4974,-0.5008,-0.5068,-0.5054,-0.5077,-0.5083,-0.5089,-0.5093,-0.495,-0.508,-0.5079,-0.5079,-0.5079,-0.5079,0,-0.4426,-0.4457,-0.4514,-0.4581,-0.4631,-0.4623,-0.4676,-0.4719,-0.4783,-0.483,-0.4884,-0.4964,-0.503,-0.507,-0.5136,-0.5176,-0.5178,-0.5193,-0.5191,-0.5199,-0.5101,-0.5081,-0.5191,-0.5191,-0.5191,-0.5191,-0.5191,-0.5191,-0.4496,-0.4577,-0.4593,-0.4693,-0.4724,-0.4796,-0.4827,-0.4868,-0.4906,-0.4994,-0.5048,-0.5073,-0.5118,-0.5187,-0.5248,-0.5258,-0.5283,-0.53,-0.5309,-0.5217,-0.5206,-0.5195,-0.5176,-0.5304,-0.5305,-0.5402,-0.5403,-0.5404]},{"header":{"parameterUnit":"m.s-1","parameterCategory":1,"la1":30.2991,"la2":30.254,"lo1":-89.0895,"lo2":-89.0444,"dx":0.0017,"dy":0.0017,"nx":28,"ny":28,"refTime":"2023-01-09T03:00:00:Z","depth":0,"parameterNumber":3,"parameterNumberName":"V-component_of_WINDS"},"data":[0,0,0,0,0,0,0,0,0,0,0,0,0,0,0,0,0,0,0,0,0,0,0,0,0,0,0,0,0,0,0,0,0,0,0,0,0,0,0,0,0,0,0,0,0,0,0,0,0,0,0,0,0,0,0,0,0,0,-1.987,-1.9871,0,-1.9956,-1.9957,-1.9958,-1.9957,-1.9956,-1.9955,-1.9954,-2.0038,-2.0042,-2.0045,0,0,0,0,0,0,0,0,0,0,0,0,0,-1.9702,-1.9705,-1.987,-1.9871,-1.9872,-1.9956,-1.9957,-1.9958,-1.9957,-1.9956,-1.9955,-1.9953,-2.0037,-2.0041,-2.0045,0,0,0,0,0,0,0,0,0,0,0,0,0,-1.978,-1.9706,-1.987,-1.9882,-1.9884,-1.9956,-1.9957,-1.9958,-1.9958,-1.9956,-1.9954,-1.9953,-2.0036,-2.0041,-2.0046,-2.011,0,0,-2.0061,-2.0063,0,0,0,0,0,0,0,0,-1.9776,-1.9786,-1.9879,-1.9881,-1.9884,-1.9944,-1.9929,-2.0009,-1.9958,-1.993,-1.9954,-1.9952,-2.0008,-2.0015,-2.0035,-2.0114,-2.0117,-2.0061,-2.0064,-2.0066,-2.0068,0,0,0,0,0,0,0,-1.977,-1.9783,-1.9904,-1.988,-1.9883,-1.9882,-1.9891,-1.9944,-1.9977,-1.9932,-1.9932,-1.9942,-2.0009,-2.003,-2.0037,-2.0119,-2.0061,-2.0065,-2.0068,-2.007,-2.0254,-2.0256,0,0,0,0,0,0,-1.9763,-1.9778,-1.9901,-1.9906,-1.9825,-1.9886,-1.9897,-1.9926,-1.9977,-1.9983,-1.9944,-1.9942,-2.0023,-2.0031,-2.004,-2.0118,-2.0066,-2.0071,-2.0074,-2.0252,-2.0254,-2.0257,0,0,0,0,0,0,-1.9759,-1.9774,-1.9898,-1.9842,-1.9858,-1.9891,-1.9924,-1.9929,-1.995,-1.9986,-1.9991,-1.996,-2.0022,-2.0033,-2.0093,-2.0121,-2.0073,-2.0078,-2.025,-2.0253,-2.0255,-2.0275,0,0,0,0,0,0,-1.9755,-1.9773,-1.9798,-1.9843,-1.9861,-1.995,-1.9926,-1.9932,-1.9959,-1.9958,-2.0002,-2.0008,-2.0021,-2.0085,-2.0098,-2.0127,-2.0081,-2.0247,-2.0251,-2.0255,-2.0272,-2.0279,-2.0284,0,0,0,0,0,-1.9749,-1.9799,-1.9799,-1.9814,-1.9894,-1.9952,-1.9962,-1.9978,-1.9961,-1.9987,-2.001,-2.0006,-2.0116,-2.0091,-2.0105,-2.0137,-2.0246,-2.025,-2.0254,-2.027,-2.0277,-2.0284,0,0,0,0,0,0,-1.9755,-1.9806,-1.9806,-1.9873,-1.9908,-1.9951,-1.9984,-1.9985,-2.0025,-2.0021,-2.0038,-2.0048,-2.0108,-2.0128,-2.01,-2.0201,-2.0179,-2.0186,-2.0186,-2.0193,-2.0199,-2.0193,-2.0086,0,0,0,0,0,-1.9765,-1.9809,-1.985,-1.9905,-1.9923,-1.9951,-1.9976,-1.9986,-2.0022,-2.0037,-2.0064,-2.0098,-2.0141,-2.0168,-2.0209,-2.0275,-2.0285,-2.0304,-2.031,-2.0314,-2.032,-2.0356,-2.0365,-2.0271,-2.0271,-2.0271,0,0,-1.9785,-1.9818,-1.9844,-1.9908,-1.9936,-1.998,-1.9963,-2.001,-2.0043,-2.0043,-2.0102,-2.0123,-2.0162,-2.0226,-2.0255,-2.0245,-2.0348,-2.032,-2.0323,-2.0327,-2.0362,-2.0371,-2.0378,-2.0274,-2.0273,-2.0273,0,0,-1.9844,-1.9873,-1.9923,-1.9952,-1.9995,-2.0013,-2.0025,-2.0069,-2.0083,-2.0142,-2.0143,-2.0182,-2.0254,-2.0283,-2.0307,-2.0377,-2.0375,-2.0389,-2.0419,-2.0455,-2.0462,-2.0469,-2.0493,-2.0502,-2.0395,-2.0395,-2.0395,0,-1.9862,-1.993,-1.9947,-1.9996,-2.0023,-2.0027,-2.0076,-2.0103,-2.0158,-2.0176,-2.0164,-2.0256,-2.0283,-2.0352,-2.037,-2.0389,-2.0402,-2.0384,-2.046,-2.0467,-2.0473,-2.0497,-2.0506,-2.0397,-2.0397,-2.0396,-2.0396,0,-1.9951,-1.9998,-2.0032,-2.0086,-2.0118,-2.0166,-2.019,-2.0219,-2.0226,-2.0245,-2.0305,-2.0337,-2.0385,-2.0402,-2.0409,-2.0473,-2.0465,-2.0457,-2.0434,-2.0483,-2.0506,-2.0515,-2.0399,-2.0398,-2.0398,-2.0398,0,0,-2.0016,-2.0079,-2.0092,-2.0116,-2.0165,-2.0201,-2.0249,-2.0297,-2.0322,-2.0359,-2.04,-2.0461,-2.0454,-2.0481,-2.049,-2.0521,-2.0574,-2.0509,-2.051,-2.0519,-2.0647,-2.0653,-2.0663,-2.0574,-2.0575,-2.0577,-2.0644,0,-2.0079,-2.0167,-2.0184,-2.026,-2.0303,-2.0307,-2.0349,-2.0383,-2.0402,-2.0441,-2.0461,-2.0505,-2.0492,-2.0508,-2.0539,-2.0561,-2.06,-2.0557,-2.061,-2.0612,-2.06,-2.0675,-2.0682,-2.0743,-2.0652,-2.0654,-2.0655,0,-2.0165,-2.0206,-2.0286,-2.033,-2.0348,-2.0386,-2.0431,-2.0469,-2.0507,-2.0518,-2.0549,-2.0555,-2.0605,-2.0581,-2.0649,-2.0619,-2.0642,-2.0656,-2.0659,-2.0664,-2.0636,-2.0682,-2.0763,-2.0772,-2.0669,-2.0668,-2.0667,0,-2.0204,-2.0279,-2.0337,-2.0358,-2.041,-2.0436,-2.0459,-2.0495,-2.0523,-2.0562,-2.058,-2.0624,-2.0648,-2.0682,-2.0699,-2.068,-2.0766,-2.0743,-2.0776,-2.0775,-2.0793,-2.0792,-2.0879,-2.0809,-2.0809,-2.0808,-2.0808,0,-2.0273,-2.0322,-2.0355,-2.0391,-2.0445,-2.0464,-2.0517,-2.0539,-2.0572,-2.0611,-2.0617,-2.0653,-2.0675,-2.0713,-2.0727,-2.0781,-2.0792,-2.0802,-2.0805,-2.0801,-2.08,-2.0816,-2.0812,-2.0811,-2.081,-2.081,-2.0809,0,-2.0326,-2.035,-2.0413,-2.0458,-2.047,-2.0508,-2.0546,-2.058,-2.0599,-2.0648,-2.0661,-2.0691,-2.0737,-2.0758,-2.0815,-2.0824,-2.0886,-2.0886,-2.0873,-2.0874,-2.0906,-2.0902,-2.1006,-2.102,-2.0941,-2.0941,-2.0942,0,-2.0368,-2.0406,-2.0455,-2.0482,-2.0506,-2.055,-2.0578,-2.0598,-2.0628,-2.0674,-2.0702,-2.0749,-2.0788,-2.0861,-2.0887,-2.0931,-2.0932,-2.0965,-2.0938,-2.0933,-2.0932,-2.0929,-2.0933,-2.097,-2.097,-2.0971,-2.0971,0,-2.0441,-2.0451,-2.0493,-2.0539,-2.0574,-2.0611,-2.0647,-2.0669,-2.0694,-2.0727,-2.0775,-2.0805,-2.0864,-2.091,-2.0955,-2.0977,-2.0978,-2.098,-2.099,-2.0986,-2.0977,-2.0982,-2.0886,-2.0977,-2.0977,-2.0976,-2.0976,-2.0976,-2.0489,-2.0523,-2.0563,-2.0609,-2.0639,-2.0673,-2.0707,-2.0732,-2.0773,-2.0823,-2.0832,-2.0883,-2.092,-2.0981,-2.1004,-2.1044,-2.1036,-2.105,-2.1054,-2.1057,-2.1058,-2.0971,-2.1052,-2.1052,-2.1052,-2.1052,-2.1052,0,-2.0562,-2.0588,-2.063,-2.0682,-2.0718,-2.0718,-2.0758,-2.0788,-2.0834,-2.0869,-2.0907,-2.0962,-2.1007,-2.1037,-2.1082,-2.1107,-2.1109,-2.1119,-2.1117,-2.1122,-2.1063,-2.105,-2.1116,-2.1116,-2.1116,-2.1116,-2.1116,-2.1116,-2.0604,-2.0661,-2.0676,-2.0748,-2.0774,-2.0825,-2.0848,-2.0879,-2.0907,-2.0969,-2.1006,-2.1026,-2.1059,-2.1107,-2.1147,-2.1155,-2.1171,-2.1181,-2.1188,-2.1132,-2.1126,-2.1119,-2.1107,-2.1184,-2.1184,-2.1243,-2.1243,-2.1244]}]]